Le nostre stazioni meteo in Italia

Pubblicità
Il mio iltempo24.it
Bologna/Borgo Panigale, Italia (16140): Temperatura & dewpoint: 02.12.2019 14:00:00 - 08.12.2019 14:00:00 (CET)Bologna/Borgo Panigale, Italia (16140): velocità del vento: 02.12.2019 14:00:00 - 08.12.2019 14:00:00 (CET)Bologna/Borgo Panigale, Italia (16140): direzione del vento: 02.12.2019 14:00:00 - 08.12.2019 14:00:00 (CET)Bologna/Borgo Panigale, Italia (16140): reduced air pressure: 02.12.2019 14:00:00 - 08.12.2019 14:00:00 (CET)Bologna/Borgo Panigale, Italia (16140): visibility: 02.12.2019 14:00:00 - 08.12.2019 14:00:00 (CET)Bologna/Borgo Panigale, Italia (16140): precipitazioni: 02.12.2019 14:00:00 - 08.12.2019 14:00:00 (CET)
Data & Tempo tt [°C] td [°C] ff [km/h] ff [kn] dd ppp [hPa] vv [km] rr [mm]
08.12.2019 14:00:00 11,0 6,0 9 5 NNE - 6 -
08.12.2019 13:00:00 10,7 5,8 2 1 - 1019,9 6 -
08.12.2019 12:00:00 9,0 5,0 4 2 - - 5 -
08.12.2019 11:00:00 7,0 5,0 4 2 - - 5 -
08.12.2019 10:00:00 5,4 4,5 5 3 O 1022,0 6 0,0
08.12.2019 09:00:00 3,0 3,0 8 4 OSO - 6 -
08.12.2019 08:00:00 1,0 1,0 5 3 O - 7 -
08.12.2019 07:00:00 1,3 1,1 2 1 - 1021,7 7 -
08.12.2019 06:00:00 3,0 3,0 4 2 SSO - 9 -
08.12.2019 05:00:00 3,0 3,0 8 4 SSO - 8 -
08.12.2019 04:00:00 2,6 2,1 5 3 SO 1021,3 7 0,0
08.12.2019 03:00:00 3,0 2,0 5 3 SO - 5 -
08.12.2019 02:00:00 3,0 3,0 4 2 SSO - 7 -
08.12.2019 01:00:00 3,7 3,0 8 4 SSO 1021,5 5 -
08.12.2019 00:00:00 4,0 3,0 5 3 OSO - 5 -
07.12.2019 23:00:00 4,0 3,0 5 3 OSO - 5 -
07.12.2019 22:00:00 4,8 3,7 5 3 SO 1020,9 5 0,0
07.12.2019 21:00:00 5,0 4,0 5 3 SO - 5 -
07.12.2019 20:00:00 5,0 3,0 2 1 - - 7 -
07.12.2019 19:00:00 5,9 4,2 4 2 NE 1020,0 8 -
07.12.2019 18:00:00 5,0 4,0 4 2 E - 7 -
07.12.2019 17:00:00 9,0 4,0 4 2 ONO - 7 -
07.12.2019 16:00:00 9,5 4,0 5 3 NNO 1018,9 7 0,0
07.12.2019 15:00:00 10,0 4,0 4 2 - - 8 -
07.12.2019 14:00:00 10,0 4,0 4 2 - - 8 -
07.12.2019 13:00:00 9,3 4,0 5 3 N 1018,9 8 -
07.12.2019 12:00:00 9,0 4,0 8 4 O - 7 -
07.12.2019 11:00:00 8,0 4,0 9 5 O - 6 -
07.12.2019 10:00:00 6,8 4,0 8 4 OSO 1020,3 5 0,0
07.12.2019 09:00:00 4,0 2,0 5 3 SO - 4,0 -
07.12.2019 08:00:00 3,0 2,0 5 3 OSO - 3,0 -
07.12.2019 07:00:00 3,4 2,5 8 4 SO 1019,5 3,0 -
07.12.2019 06:00:00 3,0 3,0 5 3 OSO - 3,5 -
07.12.2019 05:00:00 3,0 3,0 5 3 SO - 4,5 -
07.12.2019 04:00:00 4,3 3,3 8 4 OSO 1020,0 4,5 0,0
07.12.2019 03:00:00 5,0 3,0 5 3 O - 6 -
07.12.2019 02:00:00 6,0 4,0 11 6 O - 6 -
07.12.2019 01:00:00 5,7 4,2 5 3 O 1021,2 6 -
07.12.2019 00:00:00 6,0 4,0 5 3 ONO - 6 -
06.12.2019 23:00:00 6,0 4,0 4 2 SO - 6 -
06.12.2019 22:00:00 5,9 3,7 4 2 ONO 1022,1 6 0,0
06.12.2019 21:00:00 6,0 4,0 4 2 NO - 6 -
06.12.2019 20:00:00 6,0 4,0 2 1 - - 6 -
06.12.2019 19:00:00 6,3 4,2 2 1 - 1022,7 6 -
06.12.2019 18:00:00 7,0 4,0 4 2 NNO - 7 -
06.12.2019 17:00:00 7,0 4,0 4 2 N - 7 -
06.12.2019 16:00:00 7,3 3,7 4 2 ONO 1023,1 7 0,0
06.12.2019 15:00:00 8,0 3,0 5 3 NO - 8 -
06.12.2019 14:00:00 8,0 3,0 5 3 NO - 7 -
06.12.2019 13:00:00 7,6 3,2 8 4 O 1024,7 7 -
06.12.2019 12:00:00 7,0 3,0 9 5 ONO - 7 -
06.12.2019 11:00:00 6,0 3,0 9 5 O - 7 -
06.12.2019 10:00:00 5,3 2,4 9 5 O 1026,5 6 0,0
06.12.2019 09:00:00 4,0 2,0 9 5 O - 7 -
06.12.2019 08:00:00 4,0 2,0 9 5 O - 7 -
06.12.2019 07:00:00 3,9 1,5 8 4 OSO 1026,2 7 -
06.12.2019 06:00:00 3,0 2,0 4 2 - - 5 -
06.12.2019 05:00:00 3,0 2,0 4 2 SSO - 5 -
06.12.2019 04:00:00 2,7 1,5 5 3 SSO 1026,4 5 0,0
06.12.2019 03:00:00 2,0 1,0 8 4 SSO - 5 -
06.12.2019 02:00:00 1,0 0,0 8 4 SSO - 5 -
06.12.2019 01:00:00 1,1 -0,1 5 3 SO 1027,0 6 -
06.12.2019 00:00:00 2,0 0,0 5 3 O - 7 -
05.12.2019 23:00:00 2,0 1,0 5 3 SO - 7 -
05.12.2019 22:00:00 2,0 0,6 8 4 SO 1027,3 7 0,0
05.12.2019 21:00:00 3,0 1,0 8 4 SSO - 7 -
05.12.2019 20:00:00 3,0 1,0 8 4 SSO - 7 -
05.12.2019 19:00:00 3,5 1,5 5 3 SO 1027,0 7 -
05.12.2019 18:00:00 4,0 1,0 4 2 ONO - 7 -
05.12.2019 17:00:00 4,0 2,0 2 1 NNO - 7 -
05.12.2019 16:00:00 6,5 1,5 5 3 NNO 1026,4 8 0,0
05.12.2019 15:00:00 7,0 2,0 4 2 - - 9 -
05.12.2019 14:00:00 7,0 1,0 8 4 O - 8 -
05.12.2019 13:00:00 6,6 0,9 5 3 O 1026,9 8 -
05.12.2019 12:00:00 5,0 2,0 5 3 - - 8 -
05.12.2019 11:00:00 5,0 1,0 8 4 NO - 8 -
05.12.2019 10:00:00 4,9 1,3 2 1 - 1027,2 9 0,0
05.12.2019 09:00:00 4,0 2,0 5 3 SSO - 8 -
05.12.2019 08:00:00 3,0 2,0 5 3 O - 8 -
05.12.2019 07:00:00 3,3 1,4 9 5 SSO 1025,7 10 -
05.12.2019 06:00:00 3,0 1,0 4 2 - - 10 -
05.12.2019 05:00:00 2,0 1,0 2 1 SSE - 10 -
05.12.2019 04:00:00 1,3 0,3 8 4 OSO 1024,9 10 0,0
05.12.2019 03:00:00 1,0 0,0 8 4 SSO - 10 -
05.12.2019 02:00:00 2,0 1,0 8 4 SSO - 10 -
05.12.2019 01:00:00 1,6 0,5 11 6 SSO 1025,3 10 -
05.12.2019 00:00:00 2,0 1,0 8 4 SSO - 10 -
04.12.2019 23:00:00 2,0 1,0 8 4 SSO - 10 -
04.12.2019 22:00:00 2,5 0,8 8 4 SSO 1024,8 10 0,0
04.12.2019 21:00:00 2,0 1,0 8 4 SSO - 10 -
04.12.2019 20:00:00 3,0 1,0 4 2 SSO - 10 -
04.12.2019 19:00:00 3,4 1,3 8 4 SO 1024,7 10 -
04.12.2019 18:00:00 - - - - - - - -
04.12.2019 17:00:00 - - - - - - - -
04.12.2019 16:00:00 6,8 1,4 5 3 ONO 1024,6 10 0,0
04.12.2019 15:00:00 8,0 1,0 5 3 O - 10 -
04.12.2019 14:00:00 7,0 1,0 4 2 - - 10 -
04.12.2019 13:00:00 6,7 1,0 5 3 NE 1025,7 10 -
04.12.2019 12:00:00 6,0 3,0 4 2 - - 10 -
04.12.2019 11:00:00 5,0 2,0 5 3 NO - 10 -
04.12.2019 10:00:00 3,4 1,9 4 2 - 1027,2 10 0,0
04.12.2019 09:00:00 1,0 1,0 8 4 SSO - 10 -
04.12.2019 08:00:00 0,0 0,0 9 5 SSO - 10 -
04.12.2019 07:00:00 -0,2 -0,4 2 1 - 1026,3 8 -
04.12.2019 06:00:00 0,0 0,0 2 1 - - 10 -
04.12.2019 05:00:00 0,0 0,0 9 5 SSO - 8 -
04.12.2019 04:00:00 1,3 0,8 2 1 - 1026,7 8 0,0
04.12.2019 03:00:00 1,0 1,0 8 4 SSO - 10 -
04.12.2019 02:00:00 1,0 0,0 4 2 - - 10 -
04.12.2019 01:00:00 1,2 0,8 5 3 SO 1027,1 10 -
04.12.2019 00:00:00 2,0 2,0 5 3 SO - 10 -
03.12.2019 23:00:00 2,0 2,0 8 4 SO - 10 -
03.12.2019 22:00:00 3,4 2,5 5 3 SO 1027,2 10 0,0
03.12.2019 21:00:00 5,0 2,0 4 2 SSO - 10 -
03.12.2019 20:00:00 5,0 2,0 2 1 - - 10 -
03.12.2019 19:00:00 5,6 2,3 2 1 - 1025,6 10 -
03.12.2019 18:00:00 7,0 3,0 5 3 NE - 10 -
03.12.2019 17:00:00 8,0 3,0 8 4 NNE - 10 -
03.12.2019 16:00:00 9,4 3,8 13 7 NE 1024,3 10 0,0
03.12.2019 15:00:00 10,0 4,0 13 7 NE - 10 -
03.12.2019 14:00:00 10,0 5,0 13 7 NE - 10 -
03.12.2019 13:00:00 10,8 4,7 9 5 E 1024,4 10 -
03.12.2019 12:00:00 10,0 4,0 8 4 E - 10 -
03.12.2019 11:00:00 9,0 5,0 2 1 - - 10 -
03.12.2019 10:00:00 7,5 4,9 4 2 - 1024,8 10 0,0
03.12.2019 09:00:00 5,0 5,0 8 4 NNO - 10 -
03.12.2019 08:00:00 5,0 5,0 4 2 ONO - 10 -
03.12.2019 07:00:00 5,6 5,2 4 2 O 1022,7 10 -
03.12.2019 06:00:00 7,0 6,0 4 2 ONO - 10 -
03.12.2019 05:00:00 8,0 7,0 5 3 N - 6 -
03.12.2019 04:00:00 8,0 7,9 5 3 NNO 1022,1 3,0 0,0
03.12.2019 03:00:00 8,0 8,0 8 4 SO - 1,5 -
03.12.2019 02:00:00 8,0 8,0 5 3 N - 1,2 -
03.12.2019 01:00:00 7,6 7,5 5 3 SO 1021,0 1,4 -
03.12.2019 00:00:00 7,0 7,0 9 5 SO - 1,8 -
02.12.2019 23:00:00 7,0 7,0 9 5 O - 1,8 -
02.12.2019 22:00:00 7,4 7,2 9 5 O 1019,9 1,8 0,0
02.12.2019 21:00:00 8,0 7,0 9 5 OSO - 2,5 -
02.12.2019 20:00:00 8,0 7,0 9 5 OSO - 10 -
02.12.2019 19:00:00 7,6 7,0 4 2 O 1017,8 10 -
02.12.2019 18:00:00 8,0 7,0 4 2 - - 8 -
02.12.2019 17:00:00 8,0 7,0 5 3 ONO - 4,0 -
02.12.2019 16:00:00 8,3 6,6 11 6 O 1015,6 10 0,0
02.12.2019 15:00:00 8,0 7,0 11 6 O - 10 -
02.12.2019 14:00:00 9,0 7,0 15 8 O - 10 -

tt = Temperatura
td = dewpoint
ff = velocità del vento
dd = direzione del vento
ppp = reduced air pressure
vv = visibility
rr = precipitazioni

Stazioni seguenti

WeatherPro
AMSI
MeteoEarth